Weather History for KAEX - November, 2011

Change the Weather History Date:

Friday, November 18, 2011

  Actual Average Record
Temperature  
Mean Temperature 48 °F 56 °F  
Max Temperature 63 °F 68 °F 84 °F (1942)
Min Temperature 32 °F 45 °F 22 °F (1959)
Degree Days  
Heating Degree Days 17 9  
Month to date heating degree days 124 120  
Since 1 July heating degree days 228 193  
Moisture  
Dew Point 31 °F    
Average Humidity 56    
Maximum Humidity 82    
Minimum Humidity 29    
Precipitation  
Precipitation 0.00 in 0.19 in 4.24 in (1948)
Month to date precipitation 0.58 2.69  
Year to date precipitation 27.01 47.00  
Snow  
Snow 0.00 in - 0.00 in ()
Month to date snowfall 0.0  
Since 1 July snowfall 0.0  
Since 1 September snowfall 0.0  
Snow Depth 0.00 in    
Sea Level Pressure  
Sea Level Pressure 30.23 in    
Wind  
Wind Speed 6 mph (SE)    
Max Wind Speed 16 mph    
Max Gust Speed 21 mph    
Visibility 10 miles    
Events      
T = Trace of Precipitation, MM = Missing Value Source: NWS Daily Summary

Daily Weather History Graph

Daily Weather History Graph

Search for Another Location

Airport or City:

Trip Planner

Search our weather history database for the weather conditions in past years. The results will help you decide how hot, cold, wet, or windy it might be!

Date:

Astronomy

Nov. 18, 2011 Rise Set
Actual Time 6:40 AM CST 5:10 PM CST
Civil Twilight 6:14 AM CST 5:36 PM CST
Nautical Twilight 5:44 AM CST 6:05 PM CST
Astronomical Twilight 5:15 AM CST 6:34 PM CST
Moon No Moon Rise 12:31 PM CST (11/18)
Length of Visible Light 11h 21m
Length of Day
10h 30m
Waning Gibbous, 49% of the Moon is Illuminated
Nov 18
Waning Gibbous
Nov 25
New
Dec 2
First Quarter
Dec 10
Full
Dec 17
Last Quarter

Hourly Weather History & Observations

Time (CST) Temp. Windchill Dew Point Humidity Pressure Visibility Wind Dir Wind Speed Gust Speed Precip Events Conditions
12:53 AM 39.0 °F 35.7 °F 27.0 °F 62% 30.34 in 10.0 mi ENE 4.6 mph - N/A   Clear
1:53 AM 39.0 °F 35.7 °F 26.1 °F 60% 30.33 in 10.0 mi ENE 4.6 mph - N/A   Clear
2:53 AM 41.0 °F 35.8 °F 26.1 °F 55% 30.32 in 10.0 mi ENE 8.1 mph - N/A   Clear
3:53 AM 39.0 °F 35.7 °F 26.1 °F 60% 30.31 in 10.0 mi East 4.6 mph - N/A   Clear
4:53 AM 37.9 °F 32.1 °F 27.0 °F 65% 30.31 in 10.0 mi East 8.1 mph - N/A   Clear
5:53 AM 36.0 °F 33.3 °F 27.0 °F 70% 30.32 in 10.0 mi SE 3.5 mph - N/A   Clear
6:53 AM 32.0 °F 28.7 °F 26.1 °F 79% 30.32 in 10.0 mi ESE 3.5 mph - N/A   Clear
7:53 AM 39.0 °F - 30.0 °F 70% 30.33 in 10.0 mi Calm Calm - N/A   Clear
8:53 AM 48.0 °F - 27.0 °F 44% 30.32 in 10.0 mi SE 12.7 mph - N/A   Clear
9:53 AM 52.0 °F - 25.0 °F 35% 30.32 in 10.0 mi SE 13.8 mph - N/A   Clear
10:53 AM 55.0 °F - 24.1 °F 30% 30.30 in 10.0 mi SE 6.9 mph 18.4 mph N/A   Clear
11:53 AM 57.9 °F - 27.0 °F 31% 30.25 in 10.0 mi SE 9.2 mph 17.3 mph N/A   Clear
12:53 PM 60.1 °F - 28.0 °F 30% 30.21 in 10.0 mi SSE 9.2 mph - N/A   Clear
1:53 PM 61.0 °F - 28.0 °F 29% 30.19 in 10.0 mi SE 8.1 mph - N/A   Clear
2:53 PM 63.0 °F - 30.0 °F 29% 30.16 in 10.0 mi SE 10.4 mph - N/A   Clear
3:53 PM 63.0 °F - 33.1 °F 33% 30.15 in 10.0 mi SE 9.2 mph - N/A   Clear
4:53 PM 57.9 °F - 35.1 °F 42% 30.14 in 10.0 mi SSE 5.8 mph - N/A   Clear
5:53 PM 55.9 °F - 37.0 °F 49% 30.14 in 10.0 mi SSE 4.6 mph - N/A   Clear
6:53 PM 51.1 °F - 37.9 °F 61% 30.15 in 10.0 mi SE 4.6 mph - N/A   Clear
7:53 PM 48.0 °F - 37.9 °F 68% 30.14 in 10.0 mi SSE 4.6 mph - N/A   Clear
8:53 PM 50.0 °F - 39.9 °F 68% 30.14 in 10.0 mi Calm Calm - N/A   Clear
9:53 PM 48.0 °F - 39.9 °F 74% 30.15 in 10.0 mi East 3.5 mph - N/A   Clear
10:53 PM 46.0 °F 43.1 °F 41.0 °F 83% 30.14 in 10.0 mi SE 5.8 mph - N/A   Clear
11:53 PM 46.9 °F - 42.1 °F 83% 30.13 in 10.0 mi SSE 3.5 mph - N/A   Clear